Regional Weather Roundup
Issued by NWS Pendleton, OR

Current Version | Previous Version | Text Only | Print | Product List | Glossary On
Versions: 1 2 3 4 5 6 7 8 9 10 11 12 13 14 15 16 17 18 19 20 21 22 23 24 25 26 27 28 29 30 31 32 33 34 35 36 37 38 39 40 41 42 43 44 45 46 47 48 49 50
091
ASUS46 KPDT 252025
RWRPDT
PENDLETON REGIONAL WEATHER ROUNDUP
NATIONAL WEATHER SERVICE PENDLETON OREGON
100 PM PDT TUE JUL 25 2017

NOTE: FAIR INDICATES FEW OR NO CLOUDS BELOW 12,000 FEET WITH NO
SIGNIFICANT WEATHER AND/OR OBSTRUCTIONS TO VISIBILITY.

# INDICATES UNOFFICIAL STATION AND DATA

WAZ520-252110-
EAST SLOPES OF WASHINGTON CASCADES

CITY            SKY/WX      TMP DP  RH  WIND    PRES   REMARKS
#BULLFROG       N/A         85  43  23  NE2     N/A
#CLE ELUM HS    N/A         85  43  23  E1      29.95F
#CLE ELUM LAKE  N/A         83  43  24  NW2     30.05F
#EASTON DOT     N/A         84  38  19  CALM    N/A
#ELK HTS DOT    N/A         85  84  97  NE1     N/A
#GLENWOOD       N/A         87  54  32  CALM    29.90F
#NELSON 3SW     N/A         81  48  32  CALM    30.10F
#NILE           N/A         86  47  26  E1      29.19F
#TEANAWAY 4NE   N/A         86  48  27  CALM    N/A
#TROUT LAKE 1NE N/A         85  51  31  CALM    29.89F
#TROUT LAKE 1E  N/A         88  51  28  N1      30.02F
$$

WAZ521-252110-
SIMCOE HIGHLANDS

CITY            SKY/WX      TMP DP  RH  WIND    PRES   REMARKS
#BICKLETON HS   N/A         83  50  32  CALM    29.99S
#CENTERVILLE 1SWN/A         85  45  25  SE5     29.87S
#GOLDENDALE 1NE N/A         87  26  11  E5      N/A
#GOLDENDALE 4W  N/A         88  25  10  N5      30.01F
#GOODNOE HILLS  N/A         92  42  18  SE8     N/A    HX 88
#LYLE 6NE       N/A         83  55  38  SW3     29.90F
#PITT 4SE       N/A         84  47  28  NW2     29.91F
$$

WAZ026-252110-
KITTITAS VALLEY

CITY            SKY/WX      TMP DP  RH  WIND    PRES   REMARKS
ELLENSBURG AP   SUNNY       89  41  19  VRB7    30.00F
#ELLENSBURG CWU N/A         86  44  23  SE2     29.85F
#ELLENSBURG 3NE N/A         84  49  30  CALM    28.07F
#ELLENSBURG 1E  N/A         86  47  26  E1      29.95F
#MANASTASH RDG  N/A         85  84  97  N3      N/A
#ROCKY CYN DOT  N/A         84  51  32  E8      N/A
#RYEGRASS DOT   N/A         82  47  29  E2      N/A
$$

WAZ027-252110-
YAKIMA VALLEY

CITY            SKY/WX      TMP DP  RH  WIND    PRES   REMARKS
SUNNYSIDE AP    N/A         86  45  24  CALM    29.95F
YAKIMA AIRPORT  SUNNY       92  42  18  VRB6    29.97F HX 88
YAKIMA-VAGABOND SUNNY       89  39  17  W7      29.95F
#DONALD 2NE     N/A         89  26  10  SE6     28.78S
#GRANDVIEW      N/A         86  45  24  CALM    29.92F
#MABTON         N/A         86  52  31  CALM    29.94F
#MOXEE 2E       N/A         90  N/A N/A S2      29.85F
#NACHES 2SW     N/A         86  56  36  S1      30.03S
#OUTLOOK DOT    N/A         90  39  17  CALM    29.93F HX 86
#PARKER DOT     N/A         90  40  17  NE3     29.96F HX 86
#TERRACE HTS    N/A         88  47  24  S2      29.87F
#TOPPENISH      N/A         86  45  24  CALM    29.83F
#I82 S UMTANUM RN/A         87  52  30  NE2     N/A
#UNION GAP DOT  N/A         89  44  21  E1      29.98F
#W YAKIMA       N/A         86  49  28  W1      29.90F
#WHITE SWAN 5E  N/A         87  48  26  CALM    29.91F
#WILEY CITY 3W  N/A         91  39  16  CALM    29.95F HX 87
#ZILLAH DOT     N/A         88  43  21  S5      N/A
$$

WAZ028-252110-
LOWER COLUMBIA BASIN...WASHINGTON

CITY            SKY/WX      TMP DP  RH  WIND    PRES   REMARKS
HANFORD         SUNNY       90  37  15  NW7     29.95F HX 86
PASCO           SUNNY       88  51  28  N9      29.94F
PROSSER AWOS    N/A         88  52  29  W5      29.97F
RICHLAND AWOS   SUNNY       94  43  17  N8      29.92F HX 90
#BENTON CITY    N/A         90  45  21  E5      29.80F HX 86
#CONNELL 5N     N/A         92  45  20  N3      29.90F HX 88
#CONNELL 5NW    N/A         89  51  27  NW6     29.86F
#ELTOPIA 6NW    N/A         90  52  27  CALM    28.93F HX 87
#KAHLOTUS       N/A         90  41  18  SW1     29.88F HX 86
#KENNEWICK 3S   N/A         86  53  32  NW1     29.91F
#PATERSON       N/A         87  51  29  W5      29.89F
#PROSSER DOT    N/A         90  43  20  CALM    29.95F HX 86
#SAGEMOOR 2W    N/A         85  53  33  N5      29.78F
#TOUCHET 2S     N/A         88  52  29  W5      29.90F
#WEST PASCO     N/A         90  53  28  SW5     29.93S HX 88
$$

WAZ029-252110-
FOOTHILLS OF THE BLUES...WASHINGTON

CITY            SKY/WX      TMP DP  RH  WIND    PRES   REMARKS
WALLA WALLA AP  SUNNY       85  44  24  CALM    29.96F
#CLYDE 6NW      N/A         89  40  18  CALM    29.87F
#DAYTON SCHOOL  N/A         89  37  16  NW5     29.97F
#LOWDEN 2SE     N/A         87  54  32  W7      29.89F
#PLEASANT VIEW 1N/A         89  38  17  N2      29.91F
#PRESCOTT       N/A         92  58  32  CALM    29.88F HX 91
#WHITMAN COLLEGEN/A         84  49  30  CALM    29.94F
#WAITSBURG 5S   N/A         88  42  20  SW1     29.97F
#WAITSBURG 6SSE N/A         88  42  20  W3      29.92F
#WALLA WALLA 5E N/A         87  46  24  NW5     N/A
#WALLA WALLA U  N/A         87  48  26  CALM    29.89F
#WHITMAN MISSIONN/A         86  53  32  CALM    29.90F
$$

WAZ030-252110-
BLUE MOUNTAINS...WASHINGTON

CITY            SKY/WX      TMP DP  RH  WIND    PRES   REMARKS
#DIXIE 5SE      N/A         79  40  25  W7      29.97F
$$

ORZ009-041-WAZ024-252110-
COLUMBIA RIVER GORGE

CITY            SKY/WX      TMP DP  RH  WIND    PRES   REMARKS
HOOD RIVER AP   SUNNY       88  52  29  N5      29.94F
THE DALLES AP   SUNNY       90  56  32  VRB3    29.91F HX 88
#ARLINGTON AIRPON/A         88  45  23  E6      29.91F
#CELILO DOT     N/A         92  60  34  CALM    N/A    HX 92
#LYLE           N/A         85  59  41  W3      29.90F
#MARYHILL       N/A         90  40  17  N2      N/A    HX 86
#RUFUS DOT      N/A         88  N/A N/A NE6     N/A
#SMITHVILLE     N/A         90  53  28  S3      29.88F HX 88

$$

ORZ510-252110-
NORTH CENTRAL OREGON

CITY            SKY/WX      TMP DP  RH  WIND    PRES   REMARKS
#ANTELOPE       N/A         86  41  21  CALM    29.71F
#CHENOWITH 1W   N/A         88  46  23  E7      N/A
#COW CYN RST AREN/A         85  24  11  E8      N/A
#DUFUR          N/A         87  50  28  NE2     29.86F
#DUFUR 9E       N/A         82  47  29  N5      29.92F
#GRASS VALLEY 1SN/A         88  41  19  N2      30.03F
#MAUPIN SCHOOL  N/A         91  49  24  N1      29.97F HX 88
#MORO SCHOOL    N/A         88  50  27  CALM    29.97F
#SHANIKO 4NW    N/A         82  32  16  E3      30.08S
#TYGH VALLEY 2NEN/A         91  47  22  N3      29.85F HX 88
#WAPANITIA AIRPON/A         88  41  19  E1      29.88F
#WASCO 5NE      N/A         88  47  24  NE3     29.88F
$$

ORZ511-252110-
CENTRAL OREGON

CITY            SKY/WX      TMP DP  RH  WIND    PRES   REMARKS
BEND AIRPORT    PTCLDY      88  37  16  N8      30.05F
MADRAS AIRPORT  PTCLDY      88  30  12  N7      30.02F
PRINEVILLE AP   PTCLDY      88  30  12  VRB5    30.04F
REDMOND AIRPORT PTCLDY      88  28  11  N9      30.03F
#ASHWOOD SCHOOL N/A         87  26  11  N3      29.96F
#BEND 1SW       N/A         85  42  22  CALM    N/A
#BEND-AWBREY    N/A         85  43  23  N2      29.85F
#BEND-KIM LN    N/A         85  43  23  N3      29.79F
#CULVER         N/A         86  36  17  CALM    29.79F
#CULVER 8W      N/A         86  24  10  E3      30.04F
#LAKE BILLY CHINN/A         89  N/A N/A N5      29.93F
#MADRAS 4S      N/A         84  26  12  NW1     N/A
#POWELL BUTTE   N/A         84  24  11  N5      30.00F
#PRINEVILLE     N/A         88  38  17  CALM    29.92F
#PRINEVILLE 3N  N/A         85  51  31  W8      29.92F
#WARM SPRINGS   N/A         91  46  21  CALM    29.74F HX 87

$$


ORZ509-252110-
EAST SLOPES OF OREGON CASCADES

CITY            SKY/WX      TMP DP  RH  WIND    PRES   REMARKS
SISTERS AWOS    N/A         84  36  18  E10     N/A
#BLUE BOX PASS  N/A         82  N/A N/A S2      N/A
#CAMP SHERMAN   N/A         93  38  15  CALM    29.91F HX 89
#LA PINE 4NW    N/A         84  49  30  CALM    29.85F
#LAVA BUTTE DOT N/A         84  47  28  CALM    N/A
#SISTERS 3N     N/A         85  39  20  E6      29.96S
#SUNRIVER       N/A         86  45  24  NE3     30.02F
#TUMALO 3W      N/A         83  39  21  N3      29.72F
#WANOGA BUTTE D N/A         73  39  29  E3      N/A

$$

ORZ044-252110-
LOWER COLUMBIA BASIN...OREGON

CITY            SKY/WX      TMP DP  RH  WIND    PRES   REMARKS
HERMISTON       SUNNY       91  43  19  VRB3    29.93F HX 87
#BOARDMAN SCHOOLN/A         88  50  27  NW5     29.91F
#BOARDMAN 8SW   N/A         88  50  27  N3      29.90F
#ECHO 8SW       N/A         88  47  24  N2      29.95F
#I-84 EX 198 DOTN/A         85  53  33  E7      N/A
#IONE SCHOOL    N/A         87  41  20  N5      29.91F
#UMATILLA       N/A         93  48  22  CALM    29.83F HX 90
$$

ORZ507-252110-
NORTHERN FOOTHILLS OF THE BLUES

CITY            SKY/WX      TMP DP  RH  WIND    PRES   REMARKS
PENDLETON AIRPT SUNNY       91  37  15  N10     29.97F HX 87
#ADAMS 3WNW     N/A         90  38  16  NE3     29.88F HX 86
#ATHENA         N/A         87  42  21  NE5     29.92F
#CAYUSE         N/A         88  43  21  S2      29.87F
#HELIX SCHOOL   N/A         85  41  21  N5      29.90F
#HELIX 3N       N/A         86  40  20  N8      29.96F
#HOLDMAN 5SE    N/A         87  44  22  N2      29.96F
#HOLDMAN 6E     N/A         87  44  22  NW6     29.71F
#M-F GROVE ELEM N/A         83  42  24  N1      29.93F
#M-FREEWATER 5SEN/A         84  53  34  NW1     29.96S
#PENDLETON DNTN N/A         96  50  21  CALM    29.92F HX 93
#PDT AQUATIC CTRN/A         85  47  27  N2      29.93F
#PDT SUNRIDGE   N/A         90  45  21  W6      29.96F HX 86
#PENDLETON 7NW  N/A         88  55  33  CALM    29.98F
#PILOT ROCK 1S  N/A         86  43  22  N2      29.98F
#PILOT ROCK     N/A         87  39  18  CALM    30.00F
#TUTUILLA       N/A         87  50  28  CALM    30.01F
#UMAPINE 2E     N/A         84  55  37  W2      29.91F
#WESTON SCHOOL  N/A         83  38  20  NE5     29.91F

$$

ORZ508-252110-
SOUTHERN FOOTHILLS OF THE BLUES

CITY            SKY/WX      TMP DP  RH  WIND    PRES   REMARKS
LEXINGTON       SUNNY       88  39  18  N12     30.01F
#AJAX           N/A         85  38  19  S5      30.15F
#CONDON 5W      N/A         84  37  19  CALM    30.04F
#FOSSIL SCHOOL  N/A         87  34  15  N6      29.96F
#HEPPNER EOC    N/A         86  39  19  NE7     29.83F
#HEPPNER 4NE    N/A         81  40  23  N6      29.90F
#LEXINGTON 2SE  N/A         88  41  19  CALM    29.94F
#MIKKALO        N/A         90  39  17  N5      30.10F HX 86
#OLEX 4N        N/A         86  41  21  NE3     29.94F
#RUGGS 5NE      N/A         87  -3   3  N10     30.17F
#RUGGS 2SW      N/A         84  37  19  NE7     29.90F

$$

ORZ502-503-252110-
BLUE MOUNTAINS

CITY            SKY/WX      TMP DP  RH  WIND    PRES   REMARKS
MEACHAM         SUNNY       81  22  11  CALM    30.08F
#GRANITE        N/A         87  28  12  N3      29.74R
#HEPPNER 15SE   N/A         86  38  18  N5      29.94F
#LADD CREEK ODOTN/A         84  44  25  NE8     N/A
#LONG CREEK HS  N/A         82  26  13  CALM    N/A
#N POWDER DOT   N/A         85  51  31  N10     N/A
#PIKES PEAK     N/A         76  42  30  CALM    27.99S
#TOLLGATE       N/A         73  38  28  SE1     30.00R
#TROY SCHOOL    N/A         91  40  17  CALM    29.70F HX 87
#UKIAH          N/A         82  37  20  W3      29.83F
#WESTON 4E      N/A         81  42  25  NW1     29.86S
$$

ORZ505-252110-
JOHN DAY BASIN

CITY            SKY/WX      TMP DP  RH  WIND    PRES   REMARKS
JOHN DAY        SUNNY       89  32  13  CALM    30.04F
#JOHN DAY KJDY  N/A         90  N/A N/A W3      30.78F
#ANTELOPE 9ESE  N/A         92  34  13  N6      N/A    HX 88
#DAYVILLE SCHOOLN/A         90  26  10  N3      29.94F HX 86
#MITCHELL       N/A         88  43  21  CALM    30.18F
#MITCHELL 8NW   N/A         84  24  11  N3      29.90F
#MONUMENT HS    N/A         93  37  14  W1      29.92F HX 89
#MT. VERNON 5SE N/A         85  32  15  N5      30.02S
#SPRAY SCHOOL   N/A         91  N/A N/A CALM    N/A
$$

ORZ506-252110-
OCHOCO AND JOHN DAY HIGHLANDS

CITY            SKY/WX      TMP DP  RH  WIND    PRES   REMARKS
#IZEE 6NW       N/A         90  31  12  W6      N/A    HX 86
#PAULINA ODOT   N/A         87  24  10  E3      N/A
#PINE MTN OBS   N/A         73  40  30  N2      N/A
#PRAIRIE CITY   N/A         90  38  16  W1      30.17F HX 86
#SENECA         N/A         84  N/A N/A E5      N/A
#SENECA 9NW     N/A         86  29  13  N1      29.85S
$$

ORZ049-252110-
GRANDE RONDE VALLEY

CITY            SKY/WX      TMP DP  RH  WIND    PRES   REMARKS
LA GRANDE       SUNNY       90  36  15  NW7     30.00F HX 86
#COVE           N/A         87  50  28  CALM    30.03F
#COVE SCHOOL    N/A         91  44  20  CALM    30.02F HX 87
#COVE 6NW       N/A         87  35  16  W6      29.87F
#ELGIN 3N       N/A         93  44  19  CALM    29.97F HX 89
#ELGIN 1E       N/A         89  35  15  CALM    N/A
#IMBLER SCHOOL  N/A         85  30  14  CALM    29.96F
#ISLAND CITY 4N N/A         84  60  44  CALM    29.98F
#LA GRANDE-LEFFEN/A         94  39  15  E2      30.01F HX 90
#UNION 1S       N/A         87  38  18  NW5     29.86F
$$

ORZ050-252110-
WALLOWA COUNTY

CITY            SKY/WX      TMP DP  RH  WIND    PRES   REMARKS
JOSEPH AIRPORT  SUNNY       84  28  13  CALM    30.09F
#ENTERPRISE HS  N/A         84  43  24  CALM    29.75F
#IMNAHA SCHOOL  N/A         92  32  12  NW6     29.93F HX 88
#IMNAHA 10S     N/A         91  39  16  NE5     29.98F HX 87
#JOSEPH         N/A         80  24  13  CALM    30.02S
#JOSEPH 3N      N/A         82  37  20  CALM    30.09F
#JOSEPH 3W      N/A         81  36  20  CALM    29.96
#LOSTINE        N/A         88  42  20  CALM    29.67F
#LOSTINE 3SE    N/A         85  38  19  CALM    30.08F
#MT HOWARD 8000 N/A         63  35  35  CALM    30.37R
#PROMISE 1S     N/A         82  34  18  N5      29.96S
#WALLOWA LAKE   N/A         86  41  21  E2      30.12F
#WALLOWA SCHOOL N/A         88  38  17  CALM    29.97F



$$



USA.gov is the U.S. government's official web portal to all federal, state and local government web resources and services.